Overview Statistics Trail Chart Weather Telemetry Raw packets
 

This is the latest recevied weather packets stored in our database for station/object EA5GK-10. If no packets are shown the sender has not sent any weather packets the latest 10 day(s).

<< 1 2 3 4 >>
Time Temp. Humidity Pressure Rain* Wind** Luminosity Snow
1788615592 36.11° C 27% 1021.6 hPa - - - -
1788614691 36.67° C 29% 1021.7 hPa - - - -
1788613791 36.11° C 29% 1021.8 hPa - - - -
1788612891 36.67° C 26% 1021.8 hPa - - - -
1788611991 36.11° C 30% 1021.9 hPa - - - -
1788611091 35.56° C 31% 1022.2 hPa - - - -
1788610191 35.56° C 34% 1022.4 hPa - - - -
1788609290 35° C 35% 1022.6 hPa - - - -
1788608390 34.44° C 37% 1022.8 hPa - - - -
1788607490 33.89° C 36% 1023 hPa - - - -
1788606590 33.89° C 38% 1023.1 hPa - - - -
1788605690 33.33° C 39% 1023.2 hPa - - - -
1788604790 33.33° C 41% 1023.3 hPa - - - -
1788603890 32.78° C 43% 1023.5 hPa - - - -
1788602990 32.22° C 43% 1023.5 hPa - - - -
1788602089 32.22° C 44% 1023.5 hPa - - - -
1788601189 31.67° C 45% 1023.4 hPa - - - -
1788600288 31.67° C 46% 1023.3 hPa - - - -
1788599388 31.11° C 47% 1023.3 hPa - - - -
1788598488 30.56° C 48% 1023.1 hPa - - - -
1788597588 30° C 49% 1023.1 hPa - - - -
1788596688 30° C 49% 1023 hPa - - - -
1788595788 29.44° C 50% 1023.1 hPa - - - -
1788594902 28.89° C 50% 1023.1 hPa - - - -
1788594002 28.33° C 52% 1023.1 hPa - - - -

* Rain since midnight (hover to see other rain measurements)
** Current wind speed in m/s (hover to see current wind gust speed)